This demonstration page uses our WeatherBlox Daily Observations layout. Learn more.

Left ArrowRight Arrow

Hourly Observations for July 29, 2021

Temp ( °F °C ) Dew Point ( °F °C ) Humidity (%) Winds ( mph kmh ) Pressure ( in mb ) Visibility ( mi km ) Precip ( " mm )
12:53 am 00:53 Clear 74 23.3 43 6.1 33 33 E 18 30 30.06 1018 10 16 0.00 0.00
1:53 am 01:53 Clear 71 21.7 43 6.1 36 36 ENE 14 22 30.06 1018 10 16 0.00 0.00
2:53 am 02:53 Clear 69 20.6 43 6.1 39 39 ENE 12 19 30.05 1018 10 16 0.00 0.00
3:53 am 03:53 Clear 68 20 43 6.1 40 40 ENE 12 19 30.04 1017 10 16 0.00 0.00
4:53 am 04:53 Clear 67 19.4 43 6.1 42 42 ENE 12 19 30.04 1017 10 16 0.00 0.00
5:53 am 05:53 Sunny 66 18.9 44 6.7 45 45 ENE 10 17 30.04 1017 10 16 0.00 0.00
6:53 am 06:53 Sunny 67 19.4 45 7.2 45 45 ENE 8 13 30.04 1017 10 16 0.00 0.00
7:53 am 07:53 Sunny 69 20.6 47 8.3 45 45 ENE 8 13 30.04 1017 10 16 0.00 0.00
8:53 am 08:53 Sunny 71 21.7 48 8.9 44 44 Calm 30.05 1018 10 16 0.00 0.00
9:53 am 09:53 Sunny 72 22.2 46 7.8 40 40 W 5 7 30.06 1018 10 16 0.00 0.00
10:53 am 10:53 Sunny 75 23.9 46 7.8 36 36 Calm 30.05 1018 10 16 0.00 0.00
11:53 am 11:53 Sunny 79 26.1 49 9.4 35 35 Calm 30.04 1017 10 16 0.00 0.00
12:53 pm 12:53 Sunny 81 27.2 50 10 34 34 SE 6 9 30.03 1017 10 16 0.00 0.00
1:53 pm 13:53 Sunny 86 30 50 10 29 29 Calm 30.00 1016 8 13 0.00 0.00
2:53 pm 14:53 Sunny 90 32.2 49 9.4 24 24 SSE 6 9 29.97 1015 7 11 0.00 0.00
3:53 pm 15:53 Sunny 93 33.9 50 10 23 23 SW 6 9 29.94 1014 7 11 0.00 0.00
4:53 pm 16:53 Sunny 95 35 49 9.4 21 21 W 8 13 29.93 1014 7 11 0.00 0.00
5:53 pm 17:53 Sunny 94 34.4 49 9.4 21 21 WSW 6 9 29.93 1013 8 13 0.00 0.00
6:53 pm 18:53 Sunny 93 33.9 48 8.9 21 21 S 5 7 29.91 1013 8 13 0.00 0.00
7:53 pm 19:53 Sunny 90 32.2 49 9.4 24 24 W 7 11 29.91 1013 9 14 0.00 0.00
8:53 pm 20:53 Sunny 87 30.6 49 9.4 27 27 VRB 3 6 29.93 1014 9 14 0.00 0.00
9:53 pm 21:53 Clear 80 26.7 49 9.4 34 34 S 6 9 29.96 1015 10 16 0.00 0.00
10:53 pm 22:53 Clear 77 25 50 10 39 39 Calm 29.97 1015 10 16 0.00 0.00
11:53 pm 23:53 Clear 72 22.2 50 10 46 46 Calm 29.98 1015 10 16 0.00 0.00

Powered by AerisWeather